| time (UTC) | temp F | wind direction | speed MPH | gust MPH | rain 1hr in | rain 24hr in | rain mn in | humidity % | barometer mb |
| 20260906230019 | 78 | 346 | 0.0 | 0.0 | 0.00 | 0.00 | 0.00 | 65 | 1014.5 |
| 20260906225514 | 78 | 346 | 0.0 | 1.0 | 0.00 | 0.00 | 0.00 | 64 | 1014.5 |
| 20260906225021 | 78 | 346 | 0.0 | 1.0 | 0.00 | 0.00 | 0.00 | 63 | 1014.5 |
| 20260906224517 | 79 | 346 | 0.0 | 1.0 | 0.00 | 0.00 | 0.00 | 63 | 1014.5 |
| 20260906224014 | 79 | 333 | 0.0 | 2.0 | 0.00 | 0.00 | 0.00 | 64 | 1014.4 |
| 20260906223519 | 79 | 333 | 0.0 | 2.0 | 0.00 | 0.00 | 0.00 | 63 | 1014.5 |
| 20260906223022 | 79 | 114 | 0.0 | 2.0 | 0.00 | 0.00 | 0.00 | 61 | 1014.4 |
| 20260906222513 | 79 | 302 | 0.0 | 3.0 | 0.00 | 0.00 | 0.00 | 62 | 1014.3 |
| 20260906222019 | 79 | 321 | 0.0 | 3.0 | 0.00 | 0.00 | 0.00 | 60 | 1014.5 |
| 20260906221528 | 79 | 355 | 0.0 | 3.0 | 0.00 | 0.00 | 0.00 | 61 | 1014.4 |
| 20260906221015 | 79 | 311 | 1.0 | 3.0 | 0.00 | 0.00 | 0.00 | 60 | 1014.4 |
| 20260906220518 | 80 | 327 | 0.0 | 3.0 | 0.00 | 0.00 | 0.00 | 62 | 1014.2 |
| 20260906220028 | 79 | 328 | 1.0 | 3.0 | 0.00 | 0.00 | 0.00 | 59 | 1014.2 |
| 20260906215519 | 80 | 304 | 0.0 | 3.0 | 0.00 | 0.00 | 0.00 | 61 | 1014.3 |
| 20260906215007 | 80 | 302 | 1.0 | 4.0 | 0.00 | 0.00 | 0.00 | 62 | 1014.3 |
| 20260906214525 | 80 | 330 | 1.0 | 4.0 | 0.00 | 0.00 | 0.00 | 61 | 1014.2 |
| 20260906214005 | 80 | 336 | 0.0 | 3.0 | 0.00 | 0.00 | 0.00 | 60 | 1014.1 |
| 20260906213509 | 80 | 340 | 0.0 | 3.0 | 0.00 | 0.00 | 0.00 | 60 | 1014.1 |
| 20260906213026 | 80 | 328 | 0.0 | 4.0 | 0.00 | 0.00 | 0.00 | 61 | 1014.2 |
| 20260906212506 | 80 | 327 | 1.0 | 4.0 | 0.00 | 0.00 | 0.00 | 59 | 1014.2 |
| 20260906212012 | 80 | 328 | 1.0 | 3.0 | 0.00 | 0.00 | 0.00 | 59 | 1014.2 |
| 20260906211503 | 80 | 63 | 0.0 | 2.0 | 0.00 | 0.00 | 0.00 | 61 | 1014.1 |
| 20260906211005 | 80 | 303 | 0.0 | 4.0 | 0.00 | 0.00 | 0.00 | 61 | 1014.3 |
| 20260906210521 | 80 | 19 | 1.0 | 5.0 | 0.00 | 0.00 | 0.00 | 59 | 1014.4 |
| 20260906210004 | 80 | 305 | 0.0 | 5.0 | 0.00 | 0.00 | 0.00 | 58 | 1014.3 |
| 20260906205503 | 81 | 53 | 1.0 | 5.0 | 0.00 | 0.00 | 0.00 | 57 | 1014.2 |
| 20260906205010 | 81 | 308 | 0.0 | 4.0 | 0.00 | 0.00 | 0.00 | 57 | 1014.1 |
| 20260906204503 | 81 | 313 | 1.0 | 3.0 | 0.00 | 0.00 | 0.00 | 59 | 1014.3 |
| 20260906204004 | 81 | 9 | 1.0 | 3.0 | 0.00 | 0.00 | 0.00 | 59 | 1014.3 |
| 20260906203513 | 80 | 144 | 0.0 | 3.0 | 0.00 | 0.00 | 0.00 | 61 | 1014.3 |
| 20260906203002 | 80 | 24 | 0.0 | 3.0 | 0.00 | 0.00 | 0.00 | 59 | 1014.4 |
| 20260906202504 | 80 | 75 | 0.0 | 3.0 | 0.00 | 0.00 | 0.00 | 61 | 1014.5 |
| 20260906202019 | 81 | 153 | 0.0 | 3.0 | 0.00 | 0.00 | 0.00 | 63 | 1014.6 |
| 20260906201504 | 81 | 91 | 0.0 | 3.0 | 0.00 | 0.00 | 0.00 | 63 | 1014.5 |
| 20260906201008 | 81 | 62 | 0.0 | 3.0 | 0.00 | 0.00 | 0.00 | 62 | 1014.6 |
| 20260906200516 | 81 | 38 | 1.0 | 3.0 | 0.00 | 0.00 | 0.00 | 62 | 1014.5 |
| 20260906200010 | 81 | 301 | 0.0 | 7.0 | 0.00 | 0.00 | 0.00 | 60 | 1014.6 |
| 20260906195508 | 81 | 275 | 0.0 | 7.0 | 0.00 | 0.00 | 0.00 | 59 | 1014.5 |
| 20260906195013 | 82 | 342 | 1.0 | 6.0 | 0.00 | 0.00 | 0.00 | 58 | 1014.4 |
| 20260906194505 | 82 | 327 | 2.0 | 6.0 | 0.00 | 0.00 | 0.00 | 58 | 1014.4 |
| 20260906194006 | 82 | 325 | 0.0 | 6.0 | 0.00 | 0.00 | 0.00 | 57 | 1014.4 |
| 20260906193514 | 81 | 332 | 2.0 | 6.0 | 0.00 | 0.00 | 0.00 | 58 | 1014.4 |
| 20260906193004 | 81 | 331 | 0.0 | 8.0 | 0.00 | 0.00 | 0.00 | 58 | 1014.4 |
| 20260906192511 | 82 | 342 | 2.0 | 8.0 | 0.00 | 0.00 | 0.00 | 58 | 1014.4 |
| 20260906192012 | 82 | 300 | 2.0 | 5.0 | 0.00 | 0.00 | 0.00 | 57 | 1014.4 |
| 20260906191504 | 82 | 338 | 2.0 | 4.0 | 0.00 | 0.01 | 0.00 | 56 | 1014.4 |
| 20260906191008 | 83 | 262 | 1.0 | 5.0 | 0.00 | 0.01 | 0.00 | 55 | 1014.4 |
| 20260906190513 | 82 | 244 | 0.0 | 5.0 | 0.00 | 0.01 | 0.00 | 58 | 1014.5 |
| 20260906190006 | 82 | 292 | 1.0 | 5.0 | 0.00 | 0.03 | 0.00 | 58 | 1014.6 |
| 20260906185507 | 83 | 334 | 1.0 | 5.0 | 0.00 | 0.05 | 0.00 | 57 | 1014.8 |
| 20260906185015 | 83 | 311 | 2.0 | 5.0 | 0.00 | 0.05 | 0.00 | 57 | 1014.8 |
| 20260906184506 | 83 | 60 | 0.0 | 5.0 | 0.00 | 0.05 | 0.00 | 60 | 1014.7 |
| 20260906184008 | 83 | 327 | 1.0 | 5.0 | 0.00 | 0.05 | 0.00 | 58 | 1014.8 |
| 20260906183518 | 82 | 340 | 2.0 | 9.0 | 0.00 | 0.06 | 0.00 | 56 | 1014.8 |
| 20260906183018 | 82 | 347 | 2.0 | 9.0 | 0.00 | 0.08 | 0.00 | 56 | 1014.8 |
| 20260906182512 | 82 | 317 | 3.0 | 9.0 | 0.00 | 0.08 | 0.00 | 57 | 1014.8 |
| 20260906182014 | 82 | 15 | 2.0 | 8.0 | 0.00 | 0.08 | 0.00 | 58 | 1014.9 |
| 20260906181508 | 82 | 326 | 4.0 | 8.0 | 0.00 | 0.08 | 0.00 | 55 | 1014.9 |
| 20260906181012 | 83 | 29 | 0.0 | 5.0 | 0.00 | 0.08 | 0.00 | 59 | 1014.9 |
| 20260906180516 | 82 | 257 | 1.0 | 5.0 | 0.00 | 0.08 | 0.00 | 62 | 1014.9 |
| 20260906180007 | 80 | 315 | 0.0 | 3.0 | 0.00 | 0.08 | 0.00 | 63 | 1015.0 |
| 20260906175515 | 80 | 343 | 1.0 | 4.0 | 0.00 | 0.08 | 0.00 | 63 | 1014.9 |
| 20260906175016 | 80 | 15 | 1.0 | 6.0 | 0.00 | 0.08 | 0.00 | 61 | 1014.9 |
| 20260906174508 | 81 | 310 | 0.0 | 6.0 | 0.00 | 0.08 | 0.00 | 60 | 1014.9 |
| 20260906174012 | 81 | 352 | 1.0 | 6.0 | 0.00 | 0.08 | 0.00 | 60 | 1014.9 |
| 20260906173516 | 80 | 312 | 1.0 | 5.0 | 0.00 | 0.08 | 0.00 | 63 | 1014.9 |
| 20260906173017 | 80 | 26 | 1.0 | 5.0 | 0.00 | 0.08 | 0.00 | 63 | 1014.9 |
| 20260906172516 | 80 | 24 | 0.0 | 3.0 | 0.00 | 0.08 | 0.00 | 64 | 1014.9 |
| 20260906172013 | 80 | 44 | 0.0 | 3.0 | 0.00 | 0.08 | 0.00 | 66 | 1015.0 |
| 20260906171512 | 80 | 76 | 0.0 | 5.0 | 0.00 | 0.08 | 0.00 | 62 | 1015.0 |
| 20260906171012 | 80 | 51 | 1.0 | 5.0 | 0.00 | 0.08 | 0.00 | 61 | 1015.1 |
| 20260906170519 | 80 | 338 | 1.0 | 4.0 | 0.00 | 0.08 | 0.00 | 61 | 1015.1 |
| 20260906170009 | 80 | 145 | 0.0 | 4.0 | 0.00 | 0.08 | 0.00 | 61 | 1015.1 |
| 20260906165514 | 81 | 22 | 0.0 | 5.0 | 0.00 | 0.09 | 0.00 | 63 | 1015.2 |
| 20260906165021 | 80 | 53 | 1.0 | 6.0 | 0.00 | 0.10 | 0.00 | 60 | 1015.2 |
| 20260906164523 | 82 | 329 | 1.0 | 6.0 | 0.00 | 0.13 | 0.00 | 58 | 1015.2 |
| 20260906164014 | 82 | 334 | 2.0 | 5.0 | 0.00 | 0.15 | 0.00 | 61 | 1015.3 |
| 20260906163516 | 80 | 312 | 1.0 | 6.0 | 0.00 | 0.17 | 0.00 | 61 | 1015.2 |
| 20260906163021 | 81 | 348 | 1.0 | 6.0 | 0.00 | 0.18 | 0.00 | 62 | 1015.3 |
| 20260906162512 | 80 | 342 | 0.0 | 3.0 | 0.00 | 0.31 | 0.00 | 59 | 1015.3 |
| 20260906162018 | 79 | 307 | 1.0 | 4.0 | 0.00 | 0.55 | 0.00 | 64 | 1015.3 |
| 20260906161514 | 79 | 5 | 1.0 | 4.0 | 0.00 | 0.60 | 0.00 | 65 | 1015.4 |
| 20260906161014 | 79 | 296 | 2.0 | 5.0 | 0.00 | 0.79 | 0.00 | 61 | 1015.3 |
| 20260906160515 | 80 | 327 | 2.0 | 5.0 | 0.00 | 0.95 | 0.00 | 63 | 1015.3 |
| 20260906160016 | 80 | 26 | 1.0 | 3.0 | 0.00 | 0.95 | 0.00 | 64 | 1015.4 |
| 20260906155515 | 79 | 15 | 0.0 | 5.0 | 0.00 | 0.95 | 0.00 | 65 | 1015.5 |
| 20260906155019 | 79 | 306 | 1.0 | 5.0 | 0.00 | 0.95 | 0.00 | 63 | 1015.5 |
| 20260906154520 | 79 | 51 | 0.0 | 4.0 | 0.00 | 0.95 | 0.00 | 69 | 1015.6 |
| 20260906154016 | 79 | 346 | 0.0 | 4.0 | 0.00 | 0.95 | 0.00 | 70 | 1015.6 |
| 20260906153511 | 79 | 35 | 1.0 | 3.0 | 0.00 | 0.95 | 0.00 | 68 | 1015.6 |
| 20260906153018 | 79 | 320 | 1.0 | 3.0 | 0.00 | 0.95 | 0.00 | 73 | 1015.5 |
| 20260906152517 | 79 | 283 | 0.0 | 3.0 | 0.00 | 0.95 | 0.00 | 71 | 1015.5 |
| 20260906152009 | 78 | 345 | 0.0 | 3.0 | 0.00 | 0.95 | 0.00 | 76 | 1015.5 |
| 20260906151520 | 78 | 330 | 0.0 | 3.0 | 0.00 | 0.95 | 0.00 | 77 | 1015.4 |
| 20260906151017 | 77 | 18 | 0.0 | 3.0 | 0.00 | 0.95 | 0.00 | 77 | 1015.5 |
| 20260906150511 | 76 | 57 | 0.0 | 4.0 | 0.00 | 0.95 | 0.00 | 74 | 1015.5 |
| 20260906150042 | 76 | 114 | 0.0 | 6.0 | 0.00 | 0.95 | 0.00 | 74 | 1015.4 |
| 20260906145514 | 76 | 65 | 0.0 | 6.0 | 0.00 | 0.95 | 0.00 | 76 | 1015.3 |
| 20260906145007 | 77 | 102 | 1.0 | 4.0 | 0.00 | 0.95 | 0.00 | 75 | 1015.3 |
| 20260906144533 | 77 | 325 | 1.0 | 4.0 | 0.00 | 0.95 | 0.00 | 74 | 1015.3 |
| 20260906144015 | 76 | 355 | 0.0 | 4.0 | 0.00 | 0.95 | 0.00 | 76 | 1015.2 |
| 20260906143508 | 75 | 36 | 2.0 | 4.0 | 0.00 | 0.95 | 0.00 | 76 | 1015.3 |
| 20260906143033 | 75 | 40 | 1.0 | 4.0 | 0.00 | 0.95 | 0.00 | 77 | 1015.3 |
| 20260906142516 | 75 | 47 | 0.0 | 4.0 | 0.00 | 0.95 | 0.00 | 81 | 1015.2 |
| 20260906142009 | 74 | 330 | 1.0 | 4.0 | 0.00 | 0.95 | 0.00 | 81 | 1015.3 |
| 20260906141536 | 74 | 263 | 0.0 | 1.0 | 0.00 | 0.95 | 0.00 | 81 | 1015.3 |
| 20260906141015 | 74 | 9 | 0.0 | 0.0 | 0.00 | 0.95 | 0.00 | 82 | 1015.2 |
| 20260906140513 | 74 | 9 | 0.0 | 2.0 | 0.00 | 0.95 | 0.00 | 82 | 1015.2 |
| 20260906140025 | 74 | 9 | 0.0 | 4.0 | 0.00 | 0.95 | 0.00 | 81 | 1015.2 |
| 20260906135519 | 74 | 291 | 0.0 | 4.0 | 0.00 | 0.95 | 0.00 | 82 | 1015.1 |
| 20260906135011 | 74 | 47 | 1.0 | 4.0 | 0.00 | 0.95 | 0.00 | 80 | 1015.1 |
| 20260906134524 | 74 | 328 | 0.0 | 3.0 | 0.00 | 0.95 | 0.00 | 84 | 1015.1 |
| 20260906134018 | 73 | 157 | 0.0 | 2.0 | 0.00 | 0.95 | 0.00 | 84 | 1014.9 |
| 20260906133515 | 73 | 325 | 0.0 | 3.0 | 0.00 | 0.95 | 0.00 | 84 | 1014.9 |
| 20260906133028 | 73 | 311 | 0.0 | 3.0 | 0.00 | 0.95 | 0.00 | 85 | 1015.0 |
| 20260906132518 | 72 | 51 | 0.0 | 3.0 | 0.00 | 0.95 | 0.00 | 86 | 1014.9 |
| 20260906132010 | 72 | 310 | 0.0 | 3.0 | 0.00 | 0.95 | 0.00 | 87 | 1014.9 |
| 20260906131529 | 72 | 155 | 0.0 | 3.0 | 0.00 | 0.95 | 0.00 | 88 | 1014.9 |
| 20260906131017 | 72 | 19 | 0.0 | 3.0 | 0.00 | 0.95 | 0.00 | 87 | 1015.0 |
| 20260906130511 | 72 | 167 | 1.0 | 3.0 | 0.00 | 0.95 | 0.00 | 87 | 1014.8 |
| 20260906130041 | 72 | 324 | 1.0 | 3.0 | 0.00 | 0.95 | 0.00 | 88 | 1014.5 |
| 20260906125522 | 71 | 61 | 0.0 | 3.0 | 0.00 | 0.95 | 0.00 | 90 | 1014.5 |
| 20260906125011 | 71 | 352 | 0.0 | 3.0 | 0.00 | 0.95 | 0.00 | 90 | 1014.7 |
| 20260906124504 | 71 | 306 | 0.0 | 3.0 | 0.00 | 0.95 | 0.00 | 90 | 1014.9 |
| 20260906124006 | 71 | 360 | 0.0 | 1.0 | 0.00 | 0.95 | 0.00 | 90 | 1015.0 |
| 20260906123513 | 71 | 360 | 0.0 | 1.0 | 0.00 | 0.95 | 0.00 | 90 | 1015.0 |
| 20260906123004 | 71 | 360 | 0.0 | 1.0 | 0.00 | 0.95 | 0.00 | 90 | 1015.0 |
| 20260906122508 | 71 | 360 | 0.0 | 1.0 | 0.00 | 0.95 | 0.00 | 91 | 1014.9 |
| 20260906122014 | 70 | 360 | 0.0 | 1.0 | 0.00 | 0.95 | 0.00 | 92 | 1014.8 |
| 20260906121504 | 70 | 360 | 0.0 | 3.0 | 0.00 | 0.95 | 0.00 | 94 | 1014.8 |
| 20260906121009 | 70 | 285 | 0.0 | 3.0 | 0.00 | 0.95 | 0.00 | 94 | 1014.7 |
| 20260906120515 | 70 | 245 | 0.0 | 0.0 | 0.00 | 0.95 | 0.00 | 95 | 1014.6 |
| 20260906120007 | 70 | 242 | 0.0 | 0.0 | 0.00 | 0.95 | 0.00 | 95 | 1014.5 |
| 20260906115511 | 69 | 242 | 0.0 | 0.0 | 0.00 | 0.95 | 0.00 | 95 | 1014.4 |
| 20260906115012 | 69 | 242 | 0.0 | 0.0 | 0.00 | 0.95 | 0.00 | 95 | 1014.3 |
| 20260906114505 | 69 | 242 | 0.0 | 0.0 | 0.00 | 0.95 | 0.00 | 95 | 1014.3 |
| 20260906114013 | 69 | 242 | 0.0 | 0.0 | 0.00 | 0.95 | 0.00 | 95 | 1014.2 |
| 20260906113517 | 69 | 242 | 0.0 | 0.0 | 0.00 | 0.95 | 0.00 | 96 | 1014.1 |
| 20260906113008 | 69 | 242 | 0.0 | 0.0 | 0.00 | 0.95 | 0.00 | 96 | 1014.1 |
| 20260906112511 | 69 | 242 | 0.0 | 0.0 | 0.00 | 0.95 | 0.00 | 96 | 1014.0 |
| 20260906112017 | 70 | 242 | 0.0 | 0.0 | 0.00 | 0.95 | 0.00 | 95 | 1013.9 |
| 20260906111507 | 70 | 176 | 0.0 | 0.0 | 0.00 | 0.95 | 0.00 | 96 | 1013.7 |
| 20260906111011 | 70 | 176 | 0.0 | 0.0 | 0.00 | 0.95 | 0.00 | 96 | 1013.6 |
| 20260906110513 | 71 | 284 | 0.0 | 0.0 | 0.00 | 0.95 | 0.00 | 96 | 1013.5 |
| 20260906110013 | 71 | 284 | 0.0 | 0.0 | 0.00 | 0.95 | 0.00 | 96 | 1013.6 |
| 20260906105513 | 71 | 284 | 0.0 | 0.0 | 0.00 | 0.95 | 0.00 | 96 | 1013.6 |
| 20260906105017 | 71 | 284 | 0.0 | 0.0 | 0.00 | 0.95 | 0.00 | 96 | 1013.5 |
| 20260906104516 | 71 | 284 | 0.0 | 0.0 | 0.00 | 0.95 | 0.00 | 96 | 1013.5 |
| 20260906104012 | 71 | 284 | 0.0 | 0.0 | 0.00 | 0.95 | 0.00 | 96 | 1013.4 |
| 20260906103504 | 71 | 284 | 0.0 | 0.0 | 0.00 | 0.95 | 0.00 | 96 | 1013.4 |
| 20260906103010 | 71 | 284 | 0.0 | 0.0 | 0.00 | 0.95 | 0.00 | 97 | 1013.3 |
| 20260906102513 | 71 | 284 | 0.0 | 0.0 | 0.00 | 0.95 | 0.00 | 96 | 1013.4 |
| 20260906102007 | 71 | 284 | 0.0 | 0.0 | 0.00 | 0.95 | 0.00 | 96 | 1013.3 |
| 20260906101510 | 71 | 284 | 0.0 | 0.0 | 0.00 | 0.95 | 0.00 | 96 | 1013.3 |
| 20260906101011 | 71 | 284 | 0.0 | 0.0 | 0.00 | 0.95 | 0.00 | 96 | 1013.2 |
| 20260906100503 | 71 | 5 | 0.0 | 0.0 | 0.00 | 0.95 | 0.00 | 96 | 1013.1 |
| 20260906100012 | 71 | 5 | 0.0 | 0.0 | 0.00 | 0.95 | 0.00 | 96 | 1013.0 |
| 20260906095512 | 71 | 5 | 0.0 | 0.0 | 0.00 | 0.95 | 0.00 | 96 | 1013.0 |
| 20260906095006 | 71 | 5 | 0.0 | 0.0 | 0.00 | 0.95 | 0.00 | 96 | 1012.9 |
| 20260906094511 | 72 | 5 | 0.0 | 0.0 | 0.00 | 0.95 | 0.00 | 96 | 1012.9 |
| 20260906094003 | 72 | 5 | 0.0 | 0.0 | 0.00 | 0.95 | 0.00 | 96 | 1012.9 |
| 20260906093503 | 72 | 5 | 0.0 | 0.0 | 0.00 | 0.95 | 0.00 | 96 | 1013.0 |
| 20260906093003 | 72 | 5 | 0.0 | 0.0 | 0.00 | 0.95 | 0.00 | 96 | 1012.9 |
| 20260906092503 | 72 | 5 | 0.0 | 0.0 | 0.00 | 0.95 | 0.00 | 96 | 1012.8 |
| 20260906092004 | 72 | 5 | 0.0 | 0.0 | 0.00 | 0.95 | 0.00 | 96 | 1012.6 |
| 20260906091503 | 72 | 5 | 0.0 | 0.0 | 0.00 | 0.95 | 0.00 | 96 | 1012.7 |
| 20260906091003 | 72 | 5 | 0.0 | 0.0 | 0.00 | 0.95 | 0.00 | 96 | 1012.6 |
| 20260906090506 | 72 | 5 | 0.0 | 0.0 | 0.00 | 0.95 | 0.00 | 96 | 1012.6 |
| 20260906090004 | 72 | 5 | 0.0 | 0.0 | 0.00 | 0.95 | 0.00 | 96 | 1012.5 |
| 20260906085504 | 72 | 5 | 0.0 | 0.0 | 0.00 | 0.95 | 0.00 | 96 | 1012.5 |
| 20260906085003 | 72 | 5 | 0.0 | 0.0 | 0.00 | 0.95 | 0.00 | 96 | 1012.5 |
| 20260906084504 | 72 | 5 | 0.0 | 0.0 | 0.00 | 0.95 | 0.00 | 96 | 1012.4 |
| 20260906084005 | 72 | 5 | 0.0 | 0.0 | 0.00 | 0.95 | 0.00 | 96 | 1012.4 |
| 20260906083502 | 72 | 5 | 0.0 | 0.0 | 0.00 | 0.95 | 0.00 | 96 | 1012.4 |
| 20260906083004 | 72 | 5 | 0.0 | 0.0 | 0.00 | 0.95 | 0.00 | 96 | 1012.4 |
| 20260906082503 | 72 | 5 | 0.0 | 0.0 | 0.00 | 0.95 | 0.00 | 96 | 1012.4 |
| 20260906082006 | 72 | 5 | 0.0 | 0.0 | 0.00 | 0.95 | 0.00 | 96 | 1012.4 |
| 20260906081510 | 72 | 5 | 0.0 | 0.0 | 0.00 | 0.95 | 0.00 | 96 | 1012.4 |
| 20260906081003 | 72 | 5 | 0.0 | 0.0 | 0.00 | 0.95 | 0.00 | 96 | 1012.4 |
| 20260906080507 | 72 | 5 | 0.0 | 0.0 | 0.00 | 0.95 | 0.00 | 96 | 1012.4 |
| 20260906080004 | 72 | 5 | 0.0 | 0.0 | 0.00 | 0.95 | 0.00 | 96 | 1012.4 |
| 20260906075503 | 72 | 5 | 0.0 | 0.0 | 0.00 | 0.95 | 0.00 | 96 | 1012.3 |
| 20260906075003 | 72 | 309 | 0.0 | 0.0 | 0.00 | 0.95 | 0.00 | 96 | 1012.3 |
| 20260906074503 | 72 | 309 | 0.0 | 0.0 | 0.00 | 0.95 | 0.00 | 96 | 1012.3 |
| 20260906074003 | 72 | 309 | 0.0 | 0.0 | 0.00 | 0.95 | 0.00 | 96 | 1012.3 |
| 20260906073502 | 72 | 309 | 0.0 | 0.0 | 0.00 | 0.95 | 0.00 | 96 | 1012.3 |
| 20260906073004 | 72 | 309 | 0.0 | 0.0 | 0.00 | 0.95 | 0.00 | 96 | 1012.3 |
| 20260906072504 | 72 | 309 | 0.0 | 0.0 | 0.00 | 0.95 | 0.00 | 96 | 1012.3 |
| 20260906072004 | 72 | 309 | 0.0 | 0.0 | 0.00 | 0.95 | 0.00 | 96 | 1012.3 |
| 20260906071503 | 72 | 309 | 0.0 | 0.0 | 0.00 | 0.95 | 0.00 | 96 | 1012.2 |
| 20260906071003 | 72 | 309 | 0.0 | 0.0 | 0.00 | 0.95 | 0.00 | 96 | 1012.2 |
| 20260906070505 | 72 | 309 | 0.0 | 0.0 | 0.00 | 0.95 | 0.00 | 96 | 1012.2 |
| 20260906070003 | 72 | 309 | 0.0 | 0.0 | 0.00 | 0.95 | 0.00 | 96 | 1012.2 |
| 20260906065503 | 72 | 309 | 0.0 | 0.0 | 0.00 | 0.95 | 0.00 | 96 | 1012.2 |
| 20260906065004 | 72 | 309 | 0.0 | 0.0 | 0.00 | 0.95 | 0.00 | 96 | 1012.2 |
| 20260906064506 | 72 | 309 | 0.0 | 0.0 | 0.00 | 0.95 | 0.00 | 96 | 1012.2 |
| 20260906064002 | 72 | 309 | 0.0 | 0.0 | 0.00 | 0.95 | 0.00 | 96 | 1012.2 |
| 20260906063503 | 72 | 309 | 0.0 | 0.0 | 0.00 | 0.95 | 0.00 | 96 | 1012.3 |
| 20260906063008 | 72 | 309 | 0.0 | 0.0 | 0.00 | 0.95 | 0.00 | 96 | 1012.4 |
| 20260906062508 | 72 | 309 | 0.0 | 0.0 | 0.00 | 0.95 | 0.00 | 96 | 1012.3 |
| 20260906062008 | 72 | 309 | 0.0 | 0.0 | 0.00 | 0.95 | 0.00 | 96 | 1012.3 |
| 20260906061506 | 72 | 309 | 0.0 | 0.0 | 0.00 | 0.95 | 0.00 | 96 | 1012.4 |
| 20260906061004 | 72 | 309 | 0.0 | 0.0 | 0.00 | 0.95 | 0.00 | 96 | 1012.4 |
| 20260906060503 | 72 | 309 | 0.0 | 0.0 | 0.00 | 0.95 | 0.00 | 96 | 1012.4 |
| 20260906060006 | 72 | 309 | 0.0 | 0.0 | 0.00 | 0.95 | 0.00 | 96 | 1012.6 |
| 20260906055503 | 72 | 309 | 0.0 | 0.0 | 0.00 | 0.95 | 0.00 | 96 | 1012.6 |
| 20260906055003 | 72 | 309 | 0.0 | 0.0 | 0.00 | 0.95 | 0.00 | 96 | 1012.6 |
| 20260906054503 | 72 | 309 | 0.0 | 0.0 | 0.00 | 0.95 | 0.00 | 96 | 1012.5 |
| 20260906054004 | 72 | 309 | 0.0 | 0.0 | 0.00 | 0.95 | 0.00 | 96 | 1012.4 |
| 20260906053506 | 72 | 309 | 0.0 | 0.0 | 0.00 | 0.95 | 0.00 | 96 | 1012.5 |
| 20260906053006 | 72 | 309 | 0.0 | 0.0 | 0.00 | 0.95 | 0.00 | 96 | 1012.4 |
| 20260906052507 | 72 | 309 | 0.0 | 0.0 | 0.00 | 0.95 | 0.00 | 96 | 1012.5 |
| 20260906052006 | 72 | 309 | 0.0 | 0.0 | 0.00 | 0.95 | 0.00 | 96 | 1012.4 |
| 20260906051504 | 72 | 309 | 0.0 | 0.0 | 0.00 | 0.95 | 0.00 | 96 | 1012.6 |
| 20260906051004 | 72 | 309 | 0.0 | 0.0 | 0.00 | 0.95 | 0.00 | 96 | 1012.8 |
| 20260906050505 | 72 | 309 | 0.0 | 0.0 | 0.00 | 0.95 | 0.00 | 96 | 1012.7 |
| 20260906050008 | 72 | 309 | 0.0 | 0.0 | 0.00 | 0.95 | 0.00 | 96 | 1012.7 |
| 20260906045509 | 72 | 309 | 0.0 | 0.0 | 0.00 | 0.95 | 0.00 | 96 | 1012.8 |
| 20260906045006 | 72 | 309 | 0.0 | 0.0 | 0.00 | 0.95 | 0.00 | 96 | 1012.7 |
| 20260906044506 | 72 | 309 | 0.0 | 0.0 | 0.00 | 0.95 | 0.00 | 96 | 1012.7 |
| 20260906044004 | 72 | 309 | 0.0 | 0.0 | 0.00 | 0.95 | 0.00 | 96 | 1012.6 |
| 20260906043511 | 72 | 309 | 0.0 | 0.0 | 0.00 | 0.95 | 0.00 | 96 | 1012.5 |
| 20260906043010 | 72 | 309 | 0.0 | 0.0 | 0.00 | 0.95 | 0.00 | 96 | 1012.5 |
| 20260906042505 | 72 | 309 | 0.0 | 0.0 | 0.00 | 0.95 | 0.00 | 96 | 1012.7 |
| 20260906042007 | 72 | 309 | 0.0 | 0.0 | 0.00 | 0.95 | 0.00 | 96 | 1012.7 |
| 20260906041510 | 72 | 309 | 0.0 | 0.0 | 0.00 | 0.95 | 0.00 | 96 | 1012.7 |
| 20260906041008 | 72 | 309 | 0.0 | 0.0 | 0.00 | 0.95 | 0.00 | 95 | 1012.8 |
| 20260906040507 | 72 | 309 | 0.0 | 0.0 | 0.00 | 0.95 | 0.00 | 95 | 1012.7 |
| 20260906040009 | 72 | 309 | 0.0 | 0.0 | 0.00 | 0.95 | 0.00 | 95 | 1012.7 |
| 20260906035508 | 72 | 309 | 0.0 | 0.0 | 0.00 | 0.95 | 0.95 | 95 | 1012.8 |
| 20260906035009 | 72 | 309 | 0.0 | 0.0 | 0.00 | 0.95 | 0.95 | 95 | 1012.7 |
| 20260906034509 | 72 | 309 | 0.0 | 0.0 | 0.00 | 0.95 | 0.95 | 95 | 1012.7 |
| 20260906034007 | 72 | 309 | 0.0 | 0.0 | 0.00 | 0.95 | 0.95 | 95 | 1012.7 |
| 20260906033505 | 72 | 309 | 0.0 | 0.0 | 0.00 | 0.95 | 0.95 | 95 | 1012.7 |
| 20260906033008 | 72 | 309 | 0.0 | 0.0 | 0.00 | 0.95 | 0.95 | 95 | 1012.6 |
| 20260906032507 | 72 | 309 | 0.0 | 0.0 | 0.00 | 0.95 | 0.95 | 95 | 1012.7 |
| 20260906032009 | 72 | 309 | 0.0 | 0.0 | 0.00 | 0.95 | 0.95 | 95 | 1012.7 |
| 20260906031514 | 72 | 309 | 0.0 | 0.0 | 0.00 | 0.95 | 0.95 | 95 | 1012.7 |
| 20260906031007 | 72 | 309 | 0.0 | 0.0 | 0.00 | 0.95 | 0.95 | 95 | 1012.7 |
| 20260906030507 | 72 | 309 | 0.0 | 0.0 | 0.00 | 0.95 | 0.95 | 95 | 1012.7 |
| 20260906030011 | 72 | 308 | 0.0 | 0.0 | 0.00 | 0.95 | 0.95 | 95 | 1012.7 |
| 20260906025508 | 72 | 309 | 0.0 | 0.0 | 0.00 | 0.95 | 0.95 | 95 | 1012.7 |
| 20260906025009 | 72 | 309 | 0.0 | 0.0 | 0.00 | 0.95 | 0.95 | 95 | 1012.6 |
| 20260906024512 | 72 | 308 | 0.0 | 0.0 | 0.00 | 0.95 | 0.95 | 95 | 1012.7 |
| 20260906024012 | 73 | 309 | 0.0 | 0.0 | 0.00 | 0.95 | 0.95 | 95 | 1012.6 |
| 20260906023508 | 73 | 308 | 0.0 | 0.0 | 0.00 | 0.95 | 0.95 | 95 | 1012.5 |
| 20260906023018 | 73 | 308 | 0.0 | 0.0 | 0.00 | 0.95 | 0.95 | 95 | 1012.6 |
| 20260906022510 | 73 | 308 | 0.0 | 0.0 | 0.00 | 0.95 | 0.95 | 95 | 1012.7 |
| 20260906022011 | 73 | 309 | 0.0 | 0.0 | 0.00 | 0.95 | 0.95 | 95 | 1012.6 |
| 20260906021512 | 73 | 309 | 0.0 | 0.0 | 0.00 | 0.95 | 0.95 | 95 | 1012.6 |
| 20260906021009 | 73 | 308 | 0.0 | 0.0 | 0.00 | 0.95 | 0.95 | 95 | 1012.7 |
| 20260906020511 | 73 | 308 | 0.0 | 0.0 | 0.00 | 0.95 | 0.95 | 95 | 1012.7 |
| 20260906020014 | 73 | 308 | 0.0 | 0.0 | 0.00 | 0.95 | 0.95 | 95 | 1012.6 |
| 20260906015515 | 73 | 308 | 0.0 | 0.0 | 0.00 | 0.95 | 0.95 | 95 | 1012.6 |
| 20260906015011 | 74 | 308 | 0.0 | 0.0 | 0.00 | 0.95 | 0.95 | 95 | 1012.7 |
| 20260906014513 | 74 | 308 | 0.0 | 0.0 | 0.00 | 0.95 | 0.95 | 95 | 1012.7 |
| 20260906014012 | 74 | 308 | 0.0 | 0.0 | 0.00 | 0.95 | 0.95 | 95 | 1012.6 |
| 20260906013510 | 74 | 308 | 0.0 | 0.0 | 0.00 | 0.95 | 0.95 | 94 | 1012.4 |
| 20260906013016 | 74 | 308 | 0.0 | 0.0 | 0.00 | 0.95 | 0.95 | 94 | 1012.4 |
| 20260906012510 | 74 | 308 | 0.0 | 0.0 | 0.00 | 0.95 | 0.95 | 94 | 1012.4 |
| 20260906012010 | 74 | 308 | 0.0 | 0.0 | 0.00 | 0.95 | 0.95 | 94 | 1012.3 |
| 20260906011518 | 74 | 308 | 0.0 | 0.0 | 0.00 | 0.95 | 0.95 | 94 | 1012.1 |
| 20260906011015 | 74 | 308 | 0.0 | 0.0 | 0.00 | 0.95 | 0.95 | 94 | 1012.1 |
| 20260906010510 | 74 | 309 | 0.0 | 0.0 | 0.00 | 0.95 | 0.95 | 94 | 1012.1 |
| 20260906010016 | 74 | 309 | 0.0 | 0.0 | 0.00 | 0.95 | 0.95 | 94 | 1011.9 |
| 20260906005511 | 74 | 308 | 0.0 | 0.0 | 0.00 | 0.95 | 0.95 | 94 | 1012.0 |
| 20260906005008 | 74 | 308 | 0.0 | 0.0 | 0.00 | 0.95 | 0.95 | 94 | 1011.9 |
| 20260906004517 | 74 | 308 | 0.0 | 0.0 | 0.00 | 0.95 | 0.95 | 94 | 1011.8 |
| 20260906004003 | 75 | 308 | 0.0 | 0.0 | 0.00 | 0.95 | 0.95 | 94 | 1011.8 |
| 20260906003511 | 75 | 308 | 0.0 | 0.0 | 0.00 | 0.95 | 0.95 | 94 | 1011.7 |
| 20260906003024 | 75 | 308 | 0.0 | 0.0 | 0.00 | 0.95 | 0.95 | 94 | 1011.7 |
| 20260906002506 | 75 | 308 | 0.0 | 0.0 | 0.00 | 0.95 | 0.95 | 93 | 1011.8 |
| 20260906002010 | 75 | 308 | 0.0 | 0.0 | 0.00 | 0.95 | 0.95 | 93 | 1011.6 |
| 20260906001516 | 75 | 308 | 0.0 | 0.0 | 0.00 | 0.95 | 0.95 | 93 | 1011.6 |
| 20260906001003 | 75 | 308 | 0.0 | 0.0 | 0.00 | 0.95 | 0.95 | 93 | 1011.5 |
| 20260906000512 | 75 | 308 | 0.0 | 0.0 | 0.00 | 0.95 | 0.95 | 93 | 1011.3 |
| 20260906000004 | 75 | 308 | 0.0 | 0.0 | 0.00 | 0.95 | 0.95 | 93 | 1011.2 |
| 20260905235507 | 76 | 308 | 0.0 | 0.0 | 0.00 | 0.95 | 0.95 | 92 | 1011.2 |
| 20260905235014 | 76 | 308 | 0.0 | 0.0 | 0.00 | 0.95 | 0.95 | 92 | 1011.2 |
| 20260905234508 | 76 | 308 | 0.0 | 0.0 | 0.00 | 0.95 | 0.95 | 92 | 1011.3 |
| 20260905234008 | 76 | 308 | 0.0 | 0.0 | 0.00 | 0.95 | 0.95 | 92 | 1011.3 |
| 20260905233511 | 76 | 308 | 0.0 | 0.0 | 0.00 | 0.95 | 0.95 | 92 | 1011.1 |
| 20260905233006 | 76 | 308 | 0.0 | 0.0 | 0.00 | 0.95 | 0.95 | 92 | 1011.0 |
| 20260905232512 | 76 | 308 | 0.0 | 0.0 | 0.00 | 0.96 | 0.95 | 91 | 1010.8 |
| 20260905232014 | 76 | 308 | 0.0 | 0.0 | 0.00 | 0.96 | 0.95 | 91 | 1010.8 |
| 20260905231506 | 76 | 308 | 0.0 | 0.0 | 0.00 | 0.96 | 0.95 | 90 | 1011.0 |
| 20260905231007 | 76 | 308 | 0.0 | 0.0 | 0.00 | 0.96 | 0.95 | 89 | 1011.2 |
| 20260905230511 | 76 | 308 | 0.0 | 0.0 | 0.00 | 0.96 | 0.95 | 89 | 1011.3 |